�N����,����,�~����,�C��,���x,�C��,����,���ϕ���,�ő�u�ԕ���,�ő厞����,���˗�,�I�_���x,�n�����x,�ő啗���N��,DTYPE
"24/01/23","00:10",0.0,6.2,82.4,1009.7,301.1,4.1,7.5,307.8,0.00,3.5,9.3,"00:04:20",1
"24/01/23","00:20",0.0,6.0,82.4,1009.5,288.0,3.5,6.3,263.4,0.00,3.3,9.3,"00:19:36",1
"24/01/23","00:30",0.0,5.8,82.8,1010.2,300.8,3.0,5.0,308.5,0.00,3.1,9.4,"00:21:44",1
"24/01/23","00:40",0.0,5.6,82.7,1009.3,319.2,4.2,7.8,322.2,0.00,2.9,9.2,"00:37:52",1
"24/01/23","00:50",0.0,5.5,82.2,1009.7,326.5,3.4,5.1,335.2,0.00,2.8,9.3,"00:43:28",1
"24/01/23","01:00",0.0,5.4,81.9,1009.3,307.4,3.4,5.7,330.4,0.00,2.6,9.1,"00:56:32",1
"24/01/23","01:10",0.0,5.4,81.0,1009.5,305.1,3.7,7.5,307.3,0.00,2.4,9.3,"01:05:14",1
"24/01/23","01:20",0.0,5.4,79.9,1009.3,294.9,3.0,5.0,330.6,0.00,2.3,9.2,"01:11:22",1
"24/01/23","01:30",0.0,5.3,79.0,1009.5,308.7,2.0,3.4,329.8,0.00,2.0,9.1,"01:23:54",1
"24/01/23","01:40",0.0,5.3,77.6,1009.7,292.2,2.7,5.4,301.3,0.00,1.7,9.1,"01:33:32",1
"24/01/23","01:50",0.0,5.2,76.2,1009.7,309.7,2.5,5.1,316.4,0.00,1.4,9.2,"01:45:48",1
"24/01/23","02:00",0.0,5.2,75.3,1009.5,310.5,2.2,4.2,296.1,0.00,1.2,9.1,"01:57:28",1
"24/01/23","02:10",0.0,5.0,75.1,1009.0,272.1,1.6,2.8,300.0,0.00,1.0,9.0,"02:07:52",1
"24/01/23","02:20",0.0,4.8,75.2,1009.0,302.7,1.6,3.7,331.2,0.00,0.8,9.2,"02:15:32",1
"24/01/23","02:30",0.0,4.8,75.2,1009.0,231.2,1.0,2.5,313.2,0.00,0.8,9.2,"02:20:26",1
"24/01/23","02:40",0.0,4.7,74.4,1009.3,279.5,1.6,3.2,301.2,0.00,0.6,9.1,"02:39:36",1
"24/01/23","02:50",0.0,4.8,72.7,1009.3,303.3,2.6,4.4,305.6,0.00,0.4,8.9,"02:41:08",1
"24/01/23","03:00",0.0,4.7,72.0,1009.5,334.0,2.6,5.6,319.9,0.00,0.1,8.9,"02:59:56",1
"24/01/23","03:10",0.0,4.6,71.3,1009.3,323.1,3.5,5.6,330.8,0.00,-0.1,8.8,"03:00:40",1
"24/01/23","03:20",0.0,4.4,70.0,1009.3,324.0,3.4,5.0,312.8,0.00,-0.5,8.8,"03:10:08",1
"24/01/23","03:30",0.0,4.4,69.0,1009.0,332.9,4.0,7.0,333.2,0.00,-0.7,9.0,"03:22:18",1
"24/01/23","03:40",0.0,4.3,67.8,1009.0,326.9,5.0,8.2,334.6,0.00,-1.1,8.7,"03:38:32",1
"24/01/23","03:50",0.0,4.4,65.7,1009.0,312.0,5.5,7.7,325.8,0.00,-1.4,8.7,"03:49:58",1
"24/01/23","04:00",0.0,4.4,64.5,1008.6,298.0,4.0,6.3,312.3,0.00,-1.7,8.7,"03:50:34",1
"24/01/23","04:10",0.0,4.3,65.1,1008.8,290.0,4.0,5.6,282.7,0.00,-1.6,8.6,"04:01:36",1
"24/01/23","04:20",0.0,4.2,66.4,1009.0,299.9,4.0,7.4,303.3,0.00,-1.5,8.7,"04:12:04",1
"24/01/23","04:30",0.0,4.0,68.1,1009.0,276.8,2.6,4.1,277.1,0.00,-1.3,8.6,"04:20:42",1
"24/01/23","04:40",0.0,3.8,69.7,1009.0,224.6,1.0,1.8,292.0,0.00,-1.2,8.7,"04:39:04",1
"24/01/23","04:50",0.0,3.8,68.5,1009.0,300.1,2.5,3.4,297.1,0.00,-1.4,8.7,"04:41:14",1
"24/01/23","05:00",0.0,3.9,67.5,1009.0,316.3,2.8,4.1,308.8,0.00,-1.5,8.6,"04:55:42",1
"24/01/23","05:10",0.0,3.8,68.3,1009.0,294.4,3.2,4.3,316.8,0.00,-1.5,8.4,"05:02:04",1
"24/01/23","05:20",0.0,3.8,68.7,1009.0,272.4,2.0,2.6,280.8,0.00,-1.4,8.6,"05:11:52",1
"24/01/23","05:30",0.0,3.7,68.4,1009.0,267.8,2.3,3.1,267.0,0.00,-1.5,8.4,"05:21:52",1
"24/01/23","05:40",0.0,3.7,67.6,1009.0,271.3,3.1,4.1,294.3,0.00,-1.7,8.6,"05:39:42",1
"24/01/23","05:50",0.0,3.7,68.4,1009.0,262.9,2.5,2.6,265.7,0.00,-1.5,8.5,"05:40:30",1
"24/01/23","06:00",0.0,3.6,68.8,1009.0,251.3,2.5,2.8,260.4,0.00,-1.5,8.3,"05:59:16",1
"24/01/23","06:10",0.0,3.5,68.8,1009.3,276.7,2.8,4.2,306.7,0.00,-1.6,8.2,"06:09:00",1
"24/01/23","06:20",0.0,3.5,68.0,1008.8,296.6,2.7,3.9,301.1,0.00,-1.8,8.2,"06:10:10",1
"24/01/23","06:30",0.0,3.4,67.7,1009.0,273.2,2.1,3.1,266.3,0.00,-2.0,8.3,"06:25:36",1
"24/01/23","06:40",0.0,3.4,67.5,1009.0,287.5,2.0,2.7,313.4,0.00,-2.0,8.2,"06:35:22",1
"24/01/23","06:50",0.0,3.3,68.6,1008.8,308.2,1.8,2.4,329.7,0.00,-1.9,8.4,"06:49:26",1
"24/01/23","07:00",0.0,3.0,69.9,1009.0,307.9,1.5,2.2,319.0,0.00,-1.9,8.2,"06:51:58",1
"24/01/23","07:10",0.0,2.9,71.9,1009.0,322.5,1.5,2.4,328.6,0.00,-1.6,8.0,"07:07:36",1
"24/01/23","07:20",0.0,2.7,73.5,1008.8,301.1,1.3,2.4,331.2,0.00,-1.5,8.1,"07:10:16",1
"24/01/23","07:30",0.0,2.7,74.8,1009.3,260.9,1.1,1.8,247.9,0.00,-1.3,8.2,"07:29:08",1
"24/01/23","07:40",0.0,3.0,74.9,1008.8,269.3,1.6,2.4,256.1,0.00,-1.0,8.0,"07:39:28",1
"24/01/23","07:50",0.0,3.5,74.0,1009.5,266.0,1.3,2.6,266.7,0.02,-0.7,8.2,"07:48:12",1
"24/01/23","08:00",0.0,3.8,73.0,1009.5,255.1,1.6,2.6,258.4,0.04,-0.5,8.2,"07:59:44",1
"24/01/23","08:10",0.0,3.8,71.9,1009.5,254.5,2.3,4.4,262.8,0.03,-0.8,8.1,"08:02:34",1
"24/01/23","08:20",0.0,3.9,71.7,1009.3,259.8,2.0,3.9,250.2,0.04,-0.7,8.1,"08:18:52",1
"24/01/23","08:30",0.0,3.9,71.1,1009.3,252.5,2.5,5.4,237.5,0.06,-0.8,8.2,"08:21:34",1
"24/01/23","08:40",0.0,4.1,71.1,1009.0,250.4,2.2,3.6,246.8,0.06,-0.6,8.0,"08:30:24",1
"24/01/23","08:50",0.0,4.2,71.0,1009.5,253.0,2.2,4.2,244.7,0.09,-0.5,7.9,"08:42:40",1
"24/01/23","09:00",0.0,4.2,70.9,1009.3,254.7,2.5,4.3,242.6,0.09,-0.6,8.2,"08:51:52",1
"24/01/23","09:10",0.0,4.3,70.5,1009.5,256.0,3.1,5.1,233.7,0.12,-0.5,8.1,"09:07:36",1
"24/01/23","09:20",0.0,4.5,70.6,1009.3,259.7,2.6,4.8,251.4,0.15,-0.3,8.1,"09:17:36",1
"24/01/23","09:30",0.0,4.2,70.1,1009.0,255.4,3.6,5.7,297.1,0.12,-0.7,8.0,"09:25:00",1
"24/01/23","09:40",0.0,4.2,69.9,1009.5,253.7,3.5,6.2,248.4,0.13,-0.8,8.0,"09:30:40",1
"24/01/23","09:50",0.0,4.4,69.5,1009.5,279.5,3.4,6.5,326.2,0.15,-0.6,8.1,"09:48:32",1
"24/01/23","10:00",0.0,4.5,69.2,1009.5,271.4,3.2,5.9,249.3,0.14,-0.6,8.0,"09:50:40",1
"24/01/23","10:10",0.0,4.3,69.3,1009.5,274.2,3.5,6.0,303.0,0.13,-0.8,7.8,"10:06:40",1
"24/01/23","10:20",0.0,4.6,68.7,1009.3,273.7,3.1,5.1,329.1,0.21,-0.6,7.9,"10:12:32",1
"24/01/23","10:30",0.0,4.4,67.6,1009.0,287.4,3.6,5.5,326.6,0.20,-1.0,8.2,"10:27:12",1
"24/01/23","10:40",0.0,4.7,65.9,1009.3,278.1,3.1,4.4,259.7,0.27,-1.1,7.8,"10:33:52",1
"24/01/23","10:50",0.0,4.9,64.5,1008.6,270.5,3.2,6.4,302.5,0.27,-1.2,7.8,"10:42:24",1
"24/01/23","11:00",0.0,5.1,63.4,1008.8,252.1,3.7,6.5,234.8,0.36,-1.2,8.0,"10:57:34",1
"24/01/23","11:10",0.0,5.7,62.5,1008.3,259.1,3.2,7.2,240.5,0.48,-0.9,8.0,"11:05:12",1
"24/01/23","11:20",0.0,6.2,61.2,1008.3,248.9,3.0,4.8,243.2,0.49,-0.7,7.8,"11:18:10",1
"24/01/23","11:30",0.0,6.1,60.6,1007.8,241.5,3.6,5.8,228.8,0.46,-0.9,8.1,"11:21:44",1
"24/01/23","11:40",0.0,6.1,59.3,1008.3,250.0,3.9,6.5,251.3,0.52,-1.2,8.2,"11:39:12",1
"24/01/23","11:50",0.0,6.5,59.2,1007.6,250.9,3.5,5.4,240.6,0.52,-0.8,8.2,"11:43:36",1
"24/01/23","12:00",0.0,6.6,56.6,1007.6,258.8,2.8,4.3,236.7,0.46,-1.4,8.3,"11:55:16",1
"24/01/23","12:10",0.0,6.6,57.8,1007.1,268.2,2.5,4.8,246.7,0.38,-1.1,8.3,"12:03:14",1
"24/01/23","12:20",0.0,6.0,56.4,1006.7,286.5,3.1,4.9,315.8,0.16,-2.0,8.4,"12:11:14",1
"24/01/23","12:30",0.0,6.9,56.7,1006.4,271.2,3.7,7.4,294.1,0.50,-1.1,8.4,"12:23:04",1
"24/01/23","12:40",0.0,6.9,54.1,1006.2,255.7,3.5,7.8,239.0,0.45,-1.7,8.5,"12:33:20",1
"24/01/23","12:50",0.0,7.0,52.4,1005.7,281.5,3.4,5.9,263.7,0.41,-2.0,8.4,"12:43:38",1
"24/01/23","13:00",0.0,6.7,53.4,1006.0,275.9,3.6,5.7,246.9,0.25,-2.1,8.6,"12:55:30",1
"24/01/23","13:10",0.0,6.2,53.3,1006.0,295.0,3.2,5.7,317.1,0.19,-2.5,8.6,"13:07:52",1
"24/01/23","13:20",0.0,5.8,54.0,1005.5,281.8,3.4,5.8,287.4,0.09,-2.7,8.7,"13:14:32",1
"24/01/23","13:30",0.0,5.8,55.5,1005.5,279.2,3.2,5.5,268.1,0.08,-2.4,8.6,"13:29:12",1
"24/01/23","13:40",0.0,5.7,55.3,1005.5,287.9,3.6,6.7,327.1,0.10,-2.5,8.5,"13:35:12",1
"24/01/23","13:50",0.0,6.2,56.2,1005.2,265.3,3.0,5.2,234.4,0.28,-1.8,8.5,"13:41:36",1
"24/01/23","14:00",0.0,7.0,53.2,1005.0,267.4,3.4,5.7,245.6,0.46,-1.8,8.7,"13:54:36",1
"24/01/23","14:10",0.0,6.4,53.0,1005.0,286.0,3.2,4.8,250.1,0.18,-2.4,8.8,"14:03:12",1
"24/01/23","14:20",0.0,6.1,54.0,1005.2,269.7,2.8,5.0,246.7,0.10,-2.5,8.8,"14:18:56",1
"24/01/23","14:30",0.0,5.8,54.1,1005.2,276.4,3.2,5.2,334.5,0.06,-2.7,8.9,"14:28:34",1
"24/01/23","14:40",0.0,5.7,55.1,1005.0,260.9,3.5,5.7,311.7,0.06,-2.6,8.7,"14:37:38",1
"24/01/23","14:50",0.0,5.5,55.2,1004.5,261.3,4.0,7.8,323.5,0.09,-2.7,8.7,"14:42:10",1
"24/01/23","15:00",0.0,5.3,55.5,1004.8,253.0,4.2,6.6,236.1,0.06,-2.8,8.8,"14:57:46",1
"24/01/23","15:10",0.0,5.3,54.8,1004.8,266.0,4.0,7.9,284.2,0.04,-3.0,8.6,"15:04:08",1
"24/01/23","15:20",0.0,5.2,54.6,1004.5,268.2,3.9,7.5,294.2,0.03,-3.2,8.8,"15:16:04",1
"24/01/23","15:30",0.0,5.4,54.6,1004.5,259.7,3.4,5.4,248.4,0.05,-3.0,8.8,"15:25:38",1
"24/01/23","15:40",0.0,5.4,53.5,1004.8,247.7,4.0,6.6,244.3,0.06,-3.2,8.8,"15:37:26",1
"24/01/23","15:50",0.0,5.4,53.2,1004.3,244.3,3.1,5.2,250.9,0.03,-3.3,8.5,"15:48:20",1
"24/01/23","16:00",0.0,5.4,52.6,1004.5,269.6,4.1,7.8,250.7,0.03,-3.5,8.7,"15:53:44",1
"24/01/23","16:10",0.0,5.3,52.4,1004.5,257.5,4.4,7.2,247.9,0.04,-3.6,8.8,"16:07:14",1
"24/01/23","16:20",0.0,5.4,52.0,1004.8,252.5,3.9,7.1,242.2,0.06,-3.6,8.7,"16:10:46",1
"24/01/23","16:30",0.0,5.5,50.7,1005.0,263.7,4.4,8.2,256.1,0.06,-3.9,8.6,"16:24:38",1
"24/01/23","16:40",0.0,5.5,50.2,1005.2,251.7,4.2,8.0,254.6,0.04,-4.0,8.7,"16:31:44",1
"24/01/23","16:50",0.0,5.2,49.4,1004.5,262.2,3.9,6.2,255.5,0.00,-4.5,8.6,"16:47:10",1
"24/01/23","17:00",0.0,5.1,50.2,1004.5,264.1,3.2,6.7,297.7,0.01,-4.4,8.5,"16:59:30",1
"24/01/23","17:10",0.0,4.9,48.6,1004.5,267.0,3.4,6.7,258.4,0.00,-5.0,8.4,"17:06:14",1
"24/01/23","17:20",0.0,4.7,48.2,1004.3,269.2,3.1,9.0,256.9,0.00,-5.3,8.4,"17:18:00",1
"24/01/23","17:30",0.0,4.3,48.8,1004.5,260.2,4.9,8.9,249.7,0.00,-5.5,8.3,"17:22:54",1
"24/01/23","17:40",0.0,4.0,49.9,1004.3,268.9,4.1,10.1,255.4,0.00,-5.5,8.3,"17:32:34",1
"24/01/23","17:50",0.0,3.8,50.7,1004.5,265.5,4.6,8.5,248.1,0.00,-5.4,8.2,"17:46:44",1
"24/01/23","18:00",0.0,3.7,52.0,1004.8,273.1,3.6,7.2,312.3,0.00,-5.2,8.2,"17:51:18",1
"24/01/23","18:10",0.0,3.6,52.2,1004.5,275.3,3.6,5.7,258.9,0.00,-5.2,8.3,"18:07:12",1
"24/01/23","18:20",0.0,3.5,52.7,1004.5,298.5,3.4,6.8,337.4,0.00,-5.2,8.1,"18:11:20",1
"24/01/23","18:30",0.0,3.3,53.4,1004.8,280.1,2.6,3.2,263.7,0.00,-5.2,8.2,"18:24:50",1
"24/01/23","18:40",0.0,3.2,53.5,1004.8,292.7,2.8,3.9,325.9,0.00,-5.3,8.2,"18:35:50",1
"24/01/23","18:50",0.0,3.2,51.9,1004.5,296.5,4.6,7.5,319.8,0.00,-5.7,8.2,"18:41:48",1
"24/01/23","19:00",0.0,3.1,51.9,1005.0,291.3,4.6,20.3,189.9,0.00,-5.8,8.0,"18:59:54",1
"24/01/23","19:10",0.0,3.0,51.7,1004.5,306.5,4.4,6.8,328.3,0.00,-5.9,8.2,"19:06:30",1
"24/01/23","19:20",0.0,2.8,51.7,1005.0,294.6,3.4,4.4,313.4,0.00,-6.1,8.0,"19:18:22",1
"24/01/23","19:30",0.0,2.7,52.2,1004.5,291.7,2.8,4.1,314.9,0.00,-6.1,7.9,"19:24:12",1
"24/01/23","19:40",0.0,2.5,52.6,1004.5,276.6,2.7,4.4,295.0,0.00,-6.2,7.9,"19:30:46",1
"24/01/23","19:50",0.0,2.5,51.9,1004.8,275.4,3.0,5.7,242.4,0.00,-6.3,7.8,"19:44:48",1
"24/01/23","20:00",0.0,2.3,52.9,1004.5,281.7,3.1,5.1,316.0,0.00,-6.3,7.9,"19:58:08",1
"24/01/23","20:10",0.0,2.2,53.9,1004.5,277.7,1.8,2.8,263.8,0.00,-6.1,7.7,"20:01:08",1
"24/01/23","20:20",0.0,1.9,55.8,1004.8,279.9,2.0,3.1,257.9,0.00,-6.0,7.7,"20:13:44",1
"24/01/23","20:30",0.0,1.9,57.4,1004.5,271.4,2.2,3.7,241.2,0.00,-5.6,7.8,"20:24:24",1
"24/01/23","20:40",0.0,1.9,57.8,1004.3,258.1,2.6,5.4,238.1,0.00,-5.5,7.7,"20:30:16",1
"24/01/23","20:50",0.0,1.8,57.6,1004.3,272.0,2.5,4.0,290.2,0.00,-5.6,7.7,"20:45:12",1
"24/01/23","21:00",0.0,1.6,57.8,1004.1,275.3,2.1,4.0,248.1,0.00,-5.8,7.3,"20:59:08",1
"24/01/23","21:10",0.0,1.5,58.1,1004.3,274.7,2.6,4.8,269.8,0.00,-5.8,7.7,"21:09:46",1
"24/01/23","21:20",0.0,1.6,57.1,1004.5,289.8,3.0,5.1,347.7,0.00,-5.9,7.7,"21:16:10",1
"24/01/23","21:30",0.0,1.5,56.9,1004.5,274.3,3.0,4.5,254.0,0.00,-6.1,7.4,"21:27:14",1
"24/01/23","21:40",0.0,1.4,57.3,1004.8,274.6,3.2,6.4,242.4,0.00,-6.1,7.6,"21:31:48",1
"24/01/23","21:50",0.0,1.4,57.9,1004.8,273.5,3.4,6.4,243.8,0.00,-5.9,7.3,"21:43:52",1
"24/01/23","22:00",0.0,1.2,58.9,1004.5,286.2,2.8,4.0,270.1,0.00,-5.9,7.4,"21:51:00",1
"24/01/23","22:10",0.0,1.2,59.0,1004.5,276.9,3.1,5.8,267.5,0.00,-5.9,7.4,"22:06:44",1
"24/01/23","22:20",0.0,1.1,59.4,1004.3,286.1,2.8,5.4,306.7,0.00,-5.9,7.3,"22:13:16",1
"24/01/23","22:30",0.0,0.9,60.4,1004.1,263.5,2.8,6.0,244.0,0.00,-5.9,7.2,"22:29:04",1
"24/01/23","22:40",0.0,0.8,61.4,1003.8,259.2,3.0,5.2,243.2,0.00,-5.7,7.2,"22:31:12",1
"24/01/23","22:50",0.0,0.7,62.4,1003.8,260.7,2.7,5.1,237.1,0.00,-5.6,7.1,"22:43:20",1
"24/01/23","23:00",0.0,0.5,63.1,1003.8,267.0,2.5,4.5,243.5,0.00,-5.7,7.1,"22:50:24",1
"24/01/23","23:10",0.0,0.5,63.4,1004.5,261.7,2.6,5.6,241.6,0.00,-5.6,7.0,"23:00:16",1
"24/01/23","23:20",0.0,0.5,63.8,1004.3,256.2,2.7,4.4,238.7,0.00,-5.5,7.0,"23:11:44",1
"24/01/23","23:30",0.0,0.3,64.5,1004.1,262.6,2.2,4.2,258.3,0.00,-5.6,6.8,"23:21:04",1
"24/01/23","23:40",0.0,0.1,65.0,1003.8,293.5,2.2,3.1,259.7,0.00,-5.7,6.9,"23:30:48",1
"24/01/23","23:50",0.0,-0.2,66.4,1003.8,304.5,2.2,3.3,264.3,0.00,-5.7,6.9,"23:48:32",1
"24/01/23","24:00",0.0,-0.2,67.1,1003.8,303.6,2.3,4.0,335.2,0.00,-5.5,6.9,"23:54:08",1
